Weather History for Garden City, KS

Change the Weather History Date:

Tuesday, September 3, 2013

  Actual Average Record
Temperature  
Mean Temperature 77 °F 73 °F  
Max Temperature 93 °F 87 °F 100 °F (1954)
Min Temperature 60 °F 60 °F 36 °F (1974)
Degree Days  
Heating Degree Days 0 0  
Month to date heating degree days 0 0  
Since 1 July heating degree days 0 4  
Cooling Degree Days 12 9  
Month to date cooling degree days 32 27  
Year to date cooling degree days 1374 1143  
Growing Degree Days 26 (Base 50)    
Moisture  
Dew Point 54 °F    
Average Humidity 54    
Maximum Humidity 78    
Minimum Humidity 30    
Precipitation  
Precipitation 0.00 in 0.05 in 0.83 in (1981)
Month to date precipitation 0.03 0.16  
Year to date precipitation 10.20 15.81  
Sea Level Pressure  
Sea Level Pressure 29.99 in    
Wind  
Wind Speed 12 mph (SSE)    
Max Wind Speed 21 mph    
Max Gust Speed 32 mph    
Visibility 10 miles    
Events      
T = Trace of Precipitation, MM = Missing Value Source: NWS Daily Summary

Daily Weather History Graph

Daily Weather History Graph

Search for Another Location

Airport:

Trip Planner

Search our weather history database for the weather conditions in past years. The results will help you decide how hot, cold, wet, or windy it might be!

Date:

Astronomy

Sep. 03, 2013 Rise Set
Actual Time 7:14 AM CDT 8:08 PM CDT
Civil Twilight 6:47 AM CDT 8:35 PM CDT
Nautical Twilight 6:16 AM CDT 9:07 PM CDT
Astronomical Twilight 5:43 AM CDT 9:40 PM CDT
Moon 5:31 AM CDT (9/3) 6:56 PM CDT (9/3)
Length of Visible Light 13h 47m
Length of Day
12h 54m
Waning Crescent, 3% of the Moon is Illuminated
Sep 3
Waning Crescent
Sep 5
New
Sep 12
First Quarter
Sep 19
Full
Sep 26
Last Quarter

Hourly Weather History & Observations

Time (CDT) Temp. Heat Index Dew Point Humidity Pressure Visibility Wind Dir Wind Speed Gust Speed Precip Events Conditions
12:54 AM 66.0 °F - 54.0 °F 65% 30.01 in 10.0 mi SE 8.1 mph - N/A   Clear
1:54 AM 64.0 °F - 54.0 °F 70% 30.01 in 10.0 mi SSE 8.1 mph - N/A   Clear
2:54 AM 66.0 °F - 53.1 °F 63% 30.00 in 10.0 mi SSE 9.2 mph - N/A   Scattered Clouds
3:54 AM 66.0 °F - 53.1 °F 63% 30.00 in 10.0 mi SSE 9.2 mph - N/A   Partly Cloudy
4:54 AM 64.0 °F - 53.1 °F 67% 30.00 in 10.0 mi SSE 8.1 mph - N/A   Clear
5:54 AM 63.0 °F - 53.1 °F 70% 30.01 in 10.0 mi SSE 9.2 mph - N/A   Clear
6:54 AM 61.0 °F - 53.1 °F 75% 30.02 in 10.0 mi SSE 5.8 mph - N/A   Clear
7:54 AM 61.0 °F - 53.1 °F 75% 30.05 in 10.0 mi South 6.9 mph - N/A   Clear
8:54 AM 68.0 °F - 54.0 °F 61% 30.06 in 10.0 mi South 9.2 mph - N/A   Clear
9:54 AM 73.9 °F - 54.0 °F 50% 30.06 in 10.0 mi SSW 13.8 mph - N/A   Clear
10:54 AM 80.1 °F 79.9 °F 53.1 °F 39% 30.04 in 10.0 mi South 17.3 mph 23.0 mph N/A   Clear
11:54 AM 82.9 °F - 51.1 °F 33% 30.03 in 10.0 mi South 20.7 mph 25.3 mph N/A   Clear
12:54 PM 86.0 °F 84.0 °F 53.1 °F 32% 30.02 in 10.0 mi South 12.7 mph 23.0 mph N/A   Clear
1:54 PM 88.0 °F 85.9 °F 54.0 °F 31% 30.00 in 10.0 mi South 15.0 mph 21.9 mph N/A   Clear
2:54 PM 91.0 °F 88.9 °F 55.0 °F 29% 29.97 in 10.0 mi South 13.8 mph - N/A   Clear
3:54 PM 91.9 °F 90.3 °F 55.9 °F 30% 29.94 in 10.0 mi SSE 13.8 mph 24.2 mph N/A   Clear
4:54 PM 91.9 °F 90.3 °F 55.9 °F 30% 29.93 in 10.0 mi SSE 17.3 mph 24.2 mph N/A   Clear
5:54 PM 91.0 °F 89.2 °F 55.9 °F 30% 29.93 in 10.0 mi SSE 17.3 mph 23.0 mph N/A   Clear
6:54 PM 90.0 °F 87.9 °F 55.0 °F 30% 29.93 in 10.0 mi SSE 15.0 mph - N/A   Clear
7:54 PM 86.0 °F 84.2 °F 54.0 °F 33% 29.94 in 10.0 mi SE 13.8 mph - N/A   Clear
8:54 PM 82.0 °F - 52.0 °F 35% 29.95 in 10.0 mi SE 12.7 mph - N/A   Clear
9:54 PM 78.1 °F - 53.1 °F 42% 29.96 in 10.0 mi SE 12.7 mph - N/A   Clear
10:54 PM 75.0 °F - 53.1 °F 46% 29.96 in 10.0 mi SE 11.5 mph - N/A   Clear
11:54 PM 73.9 °F - 53.1 °F 48% 29.97 in 10.0 mi SSE 12.7 mph - N/A   Clear